Theta_e
331 329 332 332 335 335 335 335 335 334 334 331 332 333 329 325 321 319 316 314 313 315 314 309 308 309 314 322 325 327 329 329 329 328 327 327 330 332 332 333 333 332 330 329 330 331 330 327 323 321 320 320 317 312 316 322 321 317 311 309 308 312 317 320 323 325 327 327 328 328 327 322 317 315 315 318 320 319 320 323 328 331 333 334 334
331 328 330 333 335 335 335 335 335 335 334 331 332 331 326 323 320 318 315 313 313 314 312 308 309 308 312 322 326 326 328 329 329 327 326 328 329 330 332 334 334 333 331 327 324 324 323 321 319 319 319 317 313 310 314 317 315 312 309 309 309 309 311 313 316 320 321 322 324 324 323 321 315 314 313 313 316 317 317 321 326 330 332 333 333
330 328 330 334 335 335 335 335 335 335 333 331 332 329 323 322 319 318 316 313 312 312 311 308 308 308 310 318 323 325 325 326 327 326 326 328 329 331 332 333 332 329 327 322 318 318 318 318 318 317 316 313 311 310 311 312 311 310 309 309 309 309 310 311 313 314 315 317 319 319 319 318 316 315 314 313 314 316 317 321 325 328 330 330 330
330 329 329 333 334 335 335 335 335 335 332 331 330 326 322 321 319 318 316 314 312 310 310 308 308 308 308 315 320 323 323 322 323 325 325 327 329 330 330 330 328 324 319 316 315 315 315 314 313 312 311 311 311 310 310 311 310 310 309 310 310 310 310 311 312 313 313 314 315 316 316 317 319 319 321 320 317 317 317 320 324 326 327 326 326
331 329 329 331 333 334 335 335 335 333 332 332 329 324 323 321 318 318 316 314 312 310 309 309 308 307 308 315 321 323 324 322 323 327 328 327 328 328 327 325 322 319 314 312 312 311 310 309 308 308 308 309 310 310 311 311 310 310 310 311 311 311 311 312 312 312 313 314 315 315 316 319 322 323 324 323 318 315 315 317 319 323 324 323 322
330 328 329 331 333 334 334 334 334 332 332 332 327 323 323 320 318 318 315 314 314 311 309 309 309 307 307 313 319 321 321 323 326 329 329 328 329 330 328 321 316 313 311 309 308 307 307 307 307 307 308 309 310 310 311 311 310 311 312 312 311 311 311 312 313 313 313 314 315 315 317 320 322 322 321 321 318 316 318 319 319 319 320 318 316
331 330 330 332 333 333 333 334 333 332 331 329 324 322 323 319 318 318 315 314 315 313 311 310 309 308 307 311 318 319 320 325 327 326 327 329 330 330 326 318 312 309 308 308 307 307 307 307 308 308 309 309 310 311 311 310 311 313 314 313 311 311 312 312 313 313 313 313 314 315 318 320 321 323 323 324 323 322 322 323 323 322 320 317 318
332 331 331 332 332 332 332 333 332 331 330 326 323 322 322 319 318 318 315 315 314 315 313 312 310 310 308 309 316 317 320 326 324 322 325 327 327 326 321 314 310 308 307 308 308 308 308 308 308 308 309 310 311 311 310 311 313 314 315 314 312 311 312 312 312 312 311 312 313 313 314 316 321 326 327 326 326 325 324 324 323 324 323 321 322
332 331 331 331 331 332 332 332 331 330 328 324 323 323 321 319 319 318 317 314 314 315 314 314 312 311 310 308 310 312 319 323 320 322 324 324 325 322 318 316 317 312 307 308 308 308 308 308 308 309 309 310 311 311 311 312 313 314 315 314 312 311 311 311 311 312 312 312 314 315 315 316 320 324 325 325 325 325 324 324 323 324 323 323 324
331 331 331 331 332 332 331 330 330 328 326 324 323 322 320 319 319 320 319 315 314 315 314 314 314 313 312 310 308 308 316 320 316 319 321 322 322 320 322 324 324 314 307 308 307 308 308 308 309 309 310 310 311 311 312 312 314 314 314 313 312 311 311 312 312 313 314 315 318 320 321 321 321 321 321 322 322 323 323 323 323 323 322 323 323
331 332 332 332 332 332 331 328 327 325 325 324 323 322 320 319 319 321 321 319 316 315 314 314 314 314 313 313 311 308 314 318 314 316 319 319 317 321 327 326 322 313 307 308 307 308 308 309 309 309 310 310 311 311 312 313 315 315 315 313 313 313 312 313 314 315 317 319 321 323 324 324 324 323 322 321 319 320 321 322 321 319 319 320 319
332 333 332 332 331 331 330 327 326 325 325 324 323 322 321 319 320 322 323 322 318 315 315 314 313 313 313 313 313 311 312 315 314 316 320 321 318 321 325 321 316 310 307 307 308 308 308 309 309 309 310 311 312 313 313 314 314 315 315 314 314 316 316 316 316 318 320 322 324 324 325 325 325 325 325 324 320 318 317 317 316 313 312 313 313
333 333 332 332 331 331 330 328 327 326 325 324 323 322 321 320 321 325 326 324 319 316 316 315 315 314 313 313 313 312 312 312 312 312 315 318 318 318 319 315 311 308 307 308 308 308 308 308 308 310 310 312 313 314 314 314 314 314 315 316 317 318 318 319 318 320 322 324 325 326 326 326 327 326 326 324 318 314 312 311 310 308 308 308 308
332 333 333 332 332 331 331 329 328 326 325 325 323 322 321 321 323 326 327 325 320 317 317 316 316 316 315 313 313 312 312 311 311 312 314 316 317 316 314 311 309 307 307 307 307 307 307 308 308 309 310 311 312 312 312 313 315 315 316 317 319 320 319 320 320 322 323 325 325 326 326 327 328 326 325 322 316 312 309 308 307 307 307 308 308
333 333 333 332 332 331 331 330 329 326 325 325 324 322 321 322 325 327 327 324 321 319 317 317 317 317 316 315 314 313 312 311 310 310 313 314 315 313 310 309 307 306 307 306 307 307 306 306 306 306 307 308 309 310 311 312 314 316 316 318 320 321 320 321 322 323 324 325 325 325 326 327 327 326 325 320 316 313 309 306 306 306 307 309 308
333 333 333 333 332 331 330 330 330 327 326 326 324 323 321 322 325 327 327 324 323 322 318 317 318 318 317 317 315 314 312 311 309 308 309 310 309 308 308 307 306 306 306 306 305 305 305 306 306 307 308 309 309 310 311 312 313 315 316 318 321 321 322 323 323 324 324 325 325 326 327 327 326 326 324 320 316 311 307 306 306 307 307 308 308
335 333 333 333 332 331 330 330 330 328 326 326 324 323 322 322 324 325 327 326 324 324 320 317 319 319 319 318 317 315 313 310 308 307 306 306 306 307 307 306 306 305 305 305 306 308 309 310 311 311 311 311 311 312 312 313 313 313 315 318 321 322 323 324 324 325 324 325 326 327 327 326 326 325 323 320 315 307 305 306 306 306 306 306 306
337 335 334 333 332 331 331 330 330 329 327 327 325 324 323 322 324 324 325 325 325 325 322 318 317 318 318 319 318 316 313 310 308 305 305 305 305 306 305 305 305 305 306 309 311 313 314 314 314 314 313 313 312 312 312 313 313 313 314 316 320 322 324 325 325 325 325 326 326 326 326 326 325 323 321 317 311 306 304 305 305 306 306 306 305
337 335 335 334 333 332 332 331 330 329 328 327 326 325 324 323 324 324 322 323 325 325 324 321 319 318 317 318 319 318 315 312 309 306 305 304 304 305 305 306 307 309 312 314 315 316 316 316 316 315 314 313 313 313 312 313 313 313 313 315 320 323 324 325 325 325 325 326 326 326 326 325 324 323 320 312 308 306 305 306 307 307 307 307 305
337 336 336 334 333 333 332 332 330 330 329 328 327 326 325 324 324 324 323 323 324 324 324 324 322 320 319 318 318 319 318 316 313 310 308 307 306 307 307 309 311 313 315 316 317 317 317 317 317 316 315 314 313 312 312 312 312 312 312 313 317 322 324 324 324 324 325 325 325 325 325 324 323 322 318 311 309 307 306 307 307 307 306 305 304
338 336 335 334 334 333 333 332 331 331 331 330 328 327 326 325 324 324 325 324 324 324 324 324 324 322 321 320 319 319 319 319 317 314 312 310 310 311 311 312 313 315 316 317 318 319 319 319 318 317 317 315 313 312 311 311 311 312 312 312 313 319 323 323 323 323 323 323 323 324 324 323 323 322 318 315 314 310 308 309 307 307 306 304 304
337 336 336 335 334 334 333 333 332 331 331 331 329 328 328 327 326 325 325 325 324 325 324 325 324 324 323 322 321 320 319 320 319 318 316 314 313 314 315 316 316 317 317 318 319 320 320 320 320 320 319 318 316 315 313 311 311 312 313 313 313 315 320 323 323 323 323 322 322 322 322 322 321 318 316 315 315 312 311 310 309 308 307 306 302
334 334 334 334 334 334 334 333 333 333 332 332 331 330 329 328 328 327 326 325 325 325 325 325 325 325 324 323 323 322 320 320 320 320 319 318 317 317 318 318 318 318 319 319 320 320 321 321 321 321 321 320 320 318 316 314 312 313 313 314 315 314 317 321 322 321 321 321 321 321 320 319 316 313 312 313 313 312 310 310 308 307 307 306 302
327 329 331 332 333 334 334 334 333 334 333 332 332 331 331 330 329 328 328 327 326 326 325 325 325 325 325 324 324 324 323 321 320 321 320 320 319 319 319 319 319 319 319 320 320 321 321 321 321 321 321 321 320 319 318 316 314 314 314 315 316 313 314 318 319 318 318 318 318 318 316 316 314 314 313 311 311 310 309 309 308 307 308 306 304
322 325 328 329 331 332 333 333 333 334 334 333 332 332 332 331 331 330 329 328 327 327 326 326 326 326 326 325 325 325 325 323 321 321 321 321 321 321 320 321 320 320 320 320 321 321 321 321 321 321 321 321 320 319 318 317 315 315 315 315 316 315 314 316 316 316 316 316 317 317 317 317 317 317 316 314 313 311 310 309 306 308 310 309 307
322 323 324 325 327 328 331 332 332 333 334 334 333 333 332 332 332 331 331 330 329 328 328 327 327 327 326 326 326 325 326 325 322 322 322 322 322 321 321 321 321 321 321 321 321 321 321 320 321 320 321 320 320 319 318 316 316 316 315 315 316 316 316 315 316 316 317 318 319 319 319 319 319 318 317 316 315 313 311 308 307 309 308 308 308
320 319 320 322 323 324 327 330 331 331 333 334 334 334 333 333 333 333 332 331 330 330 329 329 328 328 328 327 327 326 326 326 325 324 323 323 323 322 322 322 321 322 322 322 322 322 321 321 321 321 321 320 319 319 318 317 316 316 315 316 316 316 316 316 317 318 319 320 320 321 321 320 320 319 317 317 315 313 310 308 310 310 307 307 308
318 318 319 319 320 322 323 327 330 330 331 333 333 333 333 333 333 333 333 332 331 331 330 330 330 329 329 328 328 327 327 327 327 326 325 324 324 324 323 323 322 322 322 322 323 322 322 322 322 322 321 320 320 319 319 318 317 316 316 316 316 316 316 317 319 319 319 320 321 321 321 320 319 319 318 317 315 314 310 310 311 309 308 309 309
318 317 317 317 317 319 322 324 326 327 329 331 331 332 332 332 332 332 332 332 332 331 330 330 331 330 329 329 328 328 328 327 327 327 327 326 325 325 324 324 323 323 323 323 323 323 323 323 323 323 321 320 320 320 319 318 317 316 316 316 314 315 317 318 318 319 319 321 321 320 320 320 320 320 319 317 316 314 312 312 311 309 309 309 309
316 315 315 315 315 316 319 321 322 324 326 328 329 329 329 330 330 329 330 331 330 330 331 330 331 330 330 329 329 328 328 327 327 327 327 327 327 326 325 325 324 324 323 323 323 323 323 323 323 323 322 321 320 320 319 318 317 316 316 316 314 315 318 318 318 319 319 320 321 320 320 319 320 320 319 317 315 313 312 311 310 308 309 309 309
314 315 314 314 315 315 316 318 320 323 324 325 325 326 325 325 326 328 329 329 329 330 330 330 331 330 330 330 329 328 328 327 328 328 328 328 328 327 326 325 325 324 324 324 323 323 323 323 323 323 322 321 321 320 318 317 316 316 316 316 315 315 317 318 317 318 319 319 320 319 319 319 319 318 318 316 313 311 311 311 310 308 308 309 309
315 315 314 314 314 314 315 315 317 320 322 323 322 323 323 322 324 326 327 327 328 329 329 330 330 330 330 329 329 329 328 328 328 328 328 328 328 328 327 327 326 325 325 325 324 323 323 323 323 322 322 322 321 320 318 317 316 315 316 316 316 315 316 318 316 317 318 318 318 318 317 318 317 317 317 314 311 311 312 311 311 309 309 309 308
316 315 315 315 315 314 314 315 316 317 319 320 321 321 321 321 322 323 325 327 329 328 328 329 330 330 330 329 329 329 329 328 328 328 328 328 328 328 328 328 327 326 325 325 324 324 323 324 323 323 322 322 321 320 318 317 316 314 315 316 316 315 315 317 317 316 317 317 317 316 317 317 316 316 314 310 308 311 311 311 310 309 308 308 307
316 316 315 315 315 315 315 315 315 316 316 317 318 319 319 320 320 321 323 325 327 328 327 328 329 330 330 330 329 329 328 328 328 328 328 328 328 328 328 328 327 326 325 325 325 324 324 324 324 323 323 322 322 321 318 318 317 314 313 315 316 316 315 316 317 317 316 316 316 316 316 316 316 314 311 307 305 306 309 310 309 308 308 308 307
316 315 316 316 315 316 316 316 316 316 316 316 316 317 317 318 318 320 321 323 325 326 327 327 328 329 330 330 329 328 328 328 328 328 328 328 328 328 328 327 327 326 326 325 325 325 324 324 324 323 323 323 322 321 319 318 318 315 312 313 315 315 314 315 316 316 316 316 315 315 314 314 315 312 309 305 301 300 303 305 307 307 307 306 306
316 316 316 315 316 316 316 316 316 316 316 316 316 316 317 317 318 319 320 321 323 324 324 326 327 327 328 329 329 329 328 328 328 328 328 327 327 327 327 326 326 325 324 324 324 325 324 324 324 324 323 323 323 322 320 318 318 316 312 311 313 313 313 313 314 315 315 315 314 314 313 313 314 312 310 305 299 297 298 298 301 303 304 305 306
316 316 316 316 316 315 316 316 316 316 316 316 317 317 317 318 318 318 319 320 321 322 321 323 325 325 326 327 328 329 329 328 328 328 328 328 327 326 326 326 326 325 324 323 323 323 324 324 324 324 324 323 323 323 321 319 318 317 313 311 311 312 311 310 312 314 313 314 314 313 313 313 313 313 312 305 298 296 296 296 296 298 299 302 305
316 316 316 316 316 316 316 316 316 316 316 317 318 318 318 319 319 319 319 319 319 319 318 320 321 322 323 326 327 328 328 329 328 328 328 328 328 326 325 326 326 326 325 324 323 322 323 324 324 324 324 323 323 323 322 320 319 318 314 311 310 310 310 309 310 312 312 312 313 313 312 312 313 313 309 301 297 296 296 295 295 295 296 298 301
317 316 316 316 316 316 316 316 316 316 316 318 319 319 320 320 320 321 321 321 319 318 317 317 318 318 319 322 325 327 327 328 328 328 328 328 329 328 327 326 327 326 325 325 324 323 323 323 324 324 324 323 322 322 322 321 319 318 315 311 309 308 308 308 309 311 312 311 311 311 311 311 312 310 303 298 297 297 296 295 294 294 294 294 295
317 317 316 316 316 316 316 316 316 316 316 318 319 320 320 320 320 321 321 319 318 318 316 316 316 316 316 317 320 322 323 326 327 327 327 328 329 328 327 328 328 327 326 325 324 324 323 323 324 324 324 323 322 321 322 321 319 318 315 310 309 308 307 308 309 310 311 311 310 310 311 311 311 306 300 297 297 297 296 295 295 294 293 293 293
318 317 317 316 316 316 316 316 316 316 316 317 318 318 318 318 319 319 317 316 317 317 316 316 316 315 315 315 316 317 319 323 326 327 327 327 329 329 327 328 329 329 328 326 324 324 324 324 324 324 324 323 323 322 322 321 319 318 315 310 307 307 307 307 308 309 310 310 310 311 310 310 308 303 298 298 298 297 296 295 295 294 294 293 293
318 317 318 317 317 316 316 317 316 316 316 316 316 316 315 315 316 316 316 316 316 316 316 316 316 316 316 315 315 316 317 319 322 325 326 326 327 328 328 328 330 329 328 328 326 325 324 324 325 325 324 323 323 323 322 321 320 319 316 311 307 306 306 306 306 307 308 308 309 309 307 306 304 300 298 299 298 297 296 295 295 294 294 294 293
318 317 318 317 317 316 316 316 316 316 316 316 316 315 315 315 316 316 316 317 316 316 317 317 318 318 317 316 316 316 316 317 318 320 322 323 323 326 328 330 330 329 328 328 327 327 325 325 326 325 324 323 323 322 321 321 321 320 316 310 306 304 304 306 306 305 305 305 304 303 302 301 300 299 299 299 299 298 297 296 295 295 294 294 293
318 318 317 317 317 317 317 316 316 316 316 316 316 315 316 317 318 318 318 318 318 318 318 317 318 317 317 316 316 316 316 316 316 317 319 320 322 325 327 328 328 327 327 327 328 328 327 325 326 325 324 324 324 322 321 320 320 321 316 310 305 301 301 307 309 304 302 301 299 299 298 298 298 299 300 300 300 299 297 296 295 295 294 294 293
317 317 317 318 317 317 317 317 316 316 316 316 316 316 317 318 318 319 320 320 319 318 318 317 316 316 315 315 314 315 315 315 316 317 318 318 320 322 325 326 325 324 324 325 326 329 328 324 325 326 323 324 324 324 323 321 320 321 319 314 307 303 306 313 309 302 301 299 298 297 297 297 298 298 299 300 300 299 298 297 295 295 294 294 293
317 317 317 317 318 317 317 317 316 316 316 316 316 317 317 317 318 318 319 318 318 317 316 316 315 315 315 314 315 314 315 315 315 317 318 319 319 319 321 323 325 325 326 326 325 327 327 324 326 326 322 323 325 324 324 322 321 320 320 318 314 312 314 315 309 304 302 300 298 298 297 297 297 297 299 300 300 300 299 298 296 295 294 293 293
318 317 318 318 318 318 317 317 317 316 316 316 316 316 316 316 316 317 317 316 316 315 315 315 315 315 315 315 315 314 315 315 315 316 317 318 320 319 318 319 321 324 327 330 329 328 326 324 327 326 322 323 325 324 324 322 321 320 319 319 318 317 317 316 313 309 305 303 302 300 298 297 296 296 297 299 300 300 300 298 297 295 293 293 293
318 318 318 318 318 318 318 317 317 316 316 316 316 316 315 316 316 316 316 315 316 315 315 315 315 315 315 315 314 314 314 314 314 315 315 316 318 318 318 318 321 323 324 327 327 325 324 324 326 324 323 325 325 323 323 322 320 321 321 319 319 318 317 316 316 314 310 309 307 304 301 299 296 296 296 298 300 300 300 299 298 296 294 293 293
319 319 319 319 318 318 318 317 317 316 316 316 315 315 315 315 315 315 315 315 315 315 315 315 315 315 315 314 314 314 314 314 314 314 314 315 315 316 316 316 319 322 324 325 324 323 322 323 324 323 323 325 325 323 323 322 322 323 322 320 319 319 317 315 315 314 312 310 309 308 307 302 298 296 296 296 298 299 299 299 299 297 294 293 293
318 319 319 319 319 318 318 317 317 317 316 316 315 315 315 315 315 315 315 315 315 315 315 315 315 314 314 314 314 314 314 314 314 314 314 314 314 314 314 314 314 314 318 323 325 325 326 327 326 323 322 324 325 324 322 322 323 323 322 321 321 319 317 315 315 315 313 311 310 310 310 307 302 300 298 297 298 298 299 300 300 298 295 293 292
317 318 318 317 317 317 317 316 316 316 316 316 315 315 315 315 315 315 315 315 315 315 315 315 315 315 315 315 314 314 314 314 313 313 313 313 313 313 313 313 312 311 316 321 323 324 324 324 323 320 321 325 325 324 322 322 323 322 321 321 321 321 319 318 318 318 316 315 313 311 310 308 305 304 302 300 299 297 298 299 300 299 297 294 292
Wind_Speed
15 15 14 13 12 12 12 12 12 12 11 10 10 10 10 12 13 13 13 12 12 12 12 12 13 13 13 13 13 13 13 13 13 14 17 18 17 16 14 13 13 13 13 11 10 10 9 8 8 8 8 9 10 11 13 12 12 13 13 14 14 16 16 16 18 18 17 16 17 16 14 14 14 14 15 15 15 15 16 18 20 21 21 20 19
16 16 15 14 13 13 12 11 12 10 10 10 10 10 10 11 12 13 12 12 12 12 12 13 13 13 13 13 14 14 13 13 14 16 18 18 16 15 14 13 12 11 11 10 9 9 8 8 8 8 9 10 11 12 13 12 12 13 13 14 15 15 16 16 16 17 17 16 16 16 15 16 16 16 15 15 15 15 15 16 18 20 20 18 17
17 17 15 15 14 14 12 11 11 10 9 9 9 9 10 11 11 12 11 11 12 12 13 13 13 13 13 13 13 13 13 13 14 17 17 17 17 14 12 11 10 9 9 9 9 10 10 9 9 9 9 10 11 12 12 12 12 13 14 14 15 15 16 16 16 16 16 16 16 16 17 18 18 18 18 18 17 16 16 16 16 18 18 16 15
16 16 16 14 14 14 13 12 11 10 9 8 8 8 9 10 11 11 11 11 11 12 13 13 13 13 13 13 13 13 14 13 15 18 17 17 16 13 10 9 8 8 9 11 11 11 11 10 9 9 10 11 11 11 11 11 12 13 14 14 15 15 16 16 16 17 17 17 17 18 19 19 20 20 20 20 18 18 18 18 18 18 18 16 15
15 16 16 14 15 14 14 12 11 10 9 8 8 8 9 10 11 10 10 11 11 12 13 13 13 13 13 13 12 13 14 14 17 19 17 15 12 11 8 8 9 9 10 11 12 11 10 10 10 10 10 11 11 11 11 11 12 13 13 14 14 15 15 15 16 16 17 18 19 20 20 21 21 21 20 19 18 18 18 18 19 20 18 18 18
15 16 16 15 15 14 14 12 11 10 9 8 7 7 8 9 10 9 9 10 11 12 12 13 13 13 13 13 12 13 14 14 17 18 16 15 11 9 7 8 10 9 10 11 12 11 11 11 11 11 11 12 12 12 11 11 12 13 14 14 14 15 15 15 16 16 17 18 19 20 21 21 21 21 21 20 19 19 20 20 20 20 20 21 21
14 15 15 15 14 14 13 12 11 10 9 7 6 6 7 8 8 9 9 10 11 12 12 12 12 13 13 13 12 13 14 14 16 16 16 15 12 10 9 9 10 10 11 13 13 13 12 12 13 12 12 12 12 12 12 11 12 13 14 14 14 15 16 16 17 17 17 18 18 19 20 20 22 23 22 20 20 21 22 23 22 20 21 22 24
14 15 15 15 14 13 12 12 11 10 9 7 6 6 7 8 7 8 9 10 11 11 12 12 12 12 12 12 12 13 14 13 14 16 17 15 11 10 10 10 10 11 13 14 14 14 13 13 13 13 12 12 12 12 11 11 11 12 13 13 15 16 17 17 18 19 19 19 19 19 20 21 24 25 22 19 19 20 20 21 21 20 19 22 23
15 14 14 14 13 12 12 11 10 10 9 7 6 6 6 7 7 7 9 10 10 11 11 11 11 11 11 11 11 12 12 12 13 16 15 13 12 11 11 12 12 13 15 15 14 14 14 13 14 13 13 12 12 12 11 11 10 10 11 13 15 16 17 18 18 19 19 20 20 21 22 23 24 23 21 20 19 19 19 19 19 19 19 20 20
15 15 14 13 12 11 11 11 10 9 8 7 7 6 6 6 6 7 9 10 11 10 10 11 11 11 10 10 10 10 11 11 11 13 12 11 13 15 14 13 13 14 16 15 14 14 14 14 14 13 13 12 12 11 11 10 9 9 10 12 14 15 16 17 17 18 19 20 21 22 22 23 23 22 19 18 18 18 18 18 19 18 18 17 17
15 15 14 13 12 11 10 11 11 10 9 8 7 7 6 6 6 8 9 9 11 10 10 10 10 10 10 9 9 9 9 10 9 10 11 11 14 17 15 12 12 14 16 15 14 14 13 14 14 13 13 12 11 10 9 9 10 10 10 12 14 14 15 16 16 17 18 19 21 22 22 21 21 20 17 16 16 16 16 17 17 16 15 14 14
16 15 14 13 13 12 11 10 11 11 9 9 8 7 6 6 7 8 9 9 10 10 9 9 9 10 10 9 9 8 8 8 9 9 10 10 12 14 12 11 12 14 16 14 14 14 13 14 13 12 12 11 10 9 8 8 9 10 11 13 14 15 15 15 16 17 19 20 21 22 22 21 20 18 17 17 15 16 16 15 15 14 14 14 13
17 16 15 14 13 12 12 11 11 11 10 9 8 8 7 7 8 8 9 8 8 9 9 9 9 9 9 9 8 8 8 8 8 8 8 9 10 10 10 11 13 15 15 14 14 13 13 14 13 12 11 10 10 9 7 6 7 10 13 15 15 16 16 16 17 18 20 21 22 21 21 21 19 17 17 16 15 16 15 15 14 13 14 14 14
17 16 15 14 13 12 12 11 11 12 11 10 9 8 7 8 8 9 8 7 7 8 8 8 9 9 9 8 8 8 7 7 8 8 8 8 9 10 11 13 14 14 14 13 12 12 12 13 12 11 10 9 8 8 7 6 7 9 12 14 16 16 16 17 17 19 20 21 21 20 20 20 19 15 14 13 12 12 13 14 14 14 15 16 16
15 15 14 14 13 13 13 11 11 11 10 10 9 9 8 8 9 9 7 6 6 7 7 8 8 8 8 8 8 7 7 8 8 8 8 9 10 10 12 13 14 14 13 13 12 12 12 12 12 10 9 8 7 7 7 7 9 10 11 13 15 16 16 17 18 19 20 21 20 20 19 19 17 14 12 11 10 10 12 14 15 16 17 17 16
13 14 14 14 13 14 13 12 12 11 10 10 10 9 8 8 9 8 7 6 5 6 7 7 8 8 8 8 7 7 7 8 8 8 8 8 10 11 12 13 14 14 13 13 13 13 13 12 11 10 9 8 7 6 6 7 8 9 11 13 15 16 16 17 18 19 19 20 20 20 19 17 14 13 11 9 8 9 11 14 15 16 15 15 14
13 14 14 14 14 14 14 13 13 12 11 10 10 10 8 8 8 8 7 6 6 5 6 7 7 8 7 7 7 7 7 8 8 8 7 8 10 11 12 13 15 15 14 14 13 13 12 11 10 9 8 7 6 5 5 6 6 8 10 12 14 15 17 18 18 18 19 19 19 19 18 15 13 11 9 6 7 10 12 13 14 14 13 12 11
14 14 15 15 16 15 14 14 14 13 12 11 11 10 9 8 7 7 6 6 6 6 6 6 6 7 7 7 6 6 7 7 8 8 8 9 11 12 13 14 16 15 15 14 13 12 12 10 9 8 7 6 5 4 4 4 5 6 8 11 12 14 16 18 18 18 18 18 18 19 16 14 11 10 8 7 9 11 11 11 13 12 11 10 10
16 16 15 15 16 16 16 15 14 14 12 12 12 11 9 9 7 6 5 4 6 6 5 5 5 5 6 6 6 6 6 7 7 7 7 8 10 11 12 14 15 15 14 13 13 12 11 10 9 8 7 6 5 5 4 4 4 5 6 9 11 14 16 18 18 18 18 18 17 17 15 12 11 10 10 10 9 10 10 11 12 11 10 10 9
17 17 17 16 17 17 17 16 16 15 14 14 13 12 11 10 9 7 6 5 5 5 4 4 4 4 4 5 5 5 6 6 7 7 8 8 8 9 10 11 12 12 12 12 11 10 10 9 8 7 6 5 5 4 5 5 5 5 5 7 10 13 15 17 18 18 18 17 16 15 13 12 11 12 11 9 9 9 9 10 9 9 9 8 8
19 19 19 18 18 18 18 17 17 16 15 15 15 14 13 12 12 10 8 7 7 6 6 5 4 3 3 4 4 4 5 6 6 7 8 8 8 8 8 9 9 10 10 9 8 7 7 6 5 5 4 4 3 3 4 5 5 5 6 7 9 13 15 16 17 18 18 17 16 14 13 11 10 9 7 8 10 9 8 8 8 8 8 8 8
23 22 21 20 20 19 19 18 18 17 17 16 16 15 14 14 13 12 10 9 9 8 7 7 6 5 4 3 3 4 5 5 6 6 7 8 8 8 8 8 8 8 8 7 7 5 4 3 2 2 3 3 2 1 2 4 5 6 7 7 8 12 15 16 16 17 17 17 15 13 14 12 8 6 6 10 12 10 9 8 8 8 9 9 9
25 24 23 22 21 21 20 20 19 19 19 18 17 16 16 15 14 13 12 11 11 10 9 8 8 7 5 4 3 4 5 5 6 6 7 7 8 8 8 8 8 8 7 7 6 5 3 1 1 1 2 3 3 3 1 2 4 5 6 6 8 13 16 17 16 16 16 16 14 11 10 9 6 5 7 10 11 9 6 6 7 8 8 8 9
24 23 23 23 23 22 21 21 20 20 20 19 18 18 17 16 15 15 13 13 13 12 11 10 9 8 7 7 6 5 5 6 7 7 8 8 8 9 9 9 9 8 8 7 6 5 3 2 1 0 1 2 3 3 3 2 3 4 5 6 9 14 16 17 17 16 15 15 13 10 8 7 7 8 8 8 9 6 3 5 6 8 8 7 9
22 22 22 23 23 23 22 21 21 21 21 20 20 19 19 18 17 16 15 15 15 14 13 12 11 10 9 9 8 7 7 8 8 8 8 8 8 8 9 9 9 8 8 7 6 5 4 3 3 2 1 1 1 1 1 2 3 4 5 7 11 14 16 17 18 17 16 15 14 11 10 8 7 9 7 6 5 3 3 4 5 8 9 9 10
23 23 23 22 22 23 23 22 22 22 22 21 21 20 20 19 19 18 17 17 16 16 15 14 13 12 11 10 10 10 9 9 9 9 8 8 8 8 8 8 9 8 8 8 7 6 6 5 5 4 4 3 3 2 3 4 4 4 6 9 12 15 17 18 19 19 17 17 15 13 12 9 7 7 5 4 3 1 2 3 5 7 6 9 12
24 24 23 23 22 23 23 24 23 23 23 22 22 22 22 21 20 19 19 18 16 17 17 16 15 14 13 12 12 12 10 10 10 9 9 8 8 8 9 9 9 9 9 8 7 7 6 6 6 6 5 5 4 3 3 4 5 5 8 10 12 15 18 19 19 19 19 18 17 15 13 10 7 6 4 4 2 1 1 3 7 7 6 9 11
25 24 24 24 24 23 24 25 25 24 24 23 23 24 23 23 22 21 20 19 18 18 18 18 18 17 15 14 14 13 13 13 12 10 9 9 9 9 9 10 10 10 10 9 9 8 7 8 7 7 6 5 5 4 5 5 5 6 8 10 12 16 18 20 19 19 19 19 18 17 14 10 8 8 5 4 4 2 3 5 7 7 9 10 9
27 25 24 24 24 24 25 26 26 26 25 25 25 25 25 25 24 23 22 22 21 19 19 19 20 19 18 17 16 15 15 15 14 12 11 10 10 10 10 11 11 11 11 11 10 9 9 9 8 7 7 6 6 5 6 6 6 6 8 10 13 17 19 19 20 19 20 19 18 17 16 13 11 9 7 7 7 3 3 6 5 5 9 9 9
26 25 25 25 24 24 26 27 27 27 26 27 27 27 27 27 26 25 24 24 23 21 20 21 22 22 21 19 18 17 16 16 15 15 14 12 12 12 11 12 12 13 12 12 11 11 10 10 9 8 7 7 6 7 7 7 8 8 9 11 14 19 20 20 20 19 19 19 18 18 18 15 14 12 10 9 7 4 4 3 2 6 9 8 9
26 27 27 26 25 25 26 26 28 28 28 28 28 28 28 27 27 26 26 26 24 23 22 22 23 24 23 21 20 19 18 17 17 17 16 15 14 13 13 13 13 14 14 13 13 12 12 12 11 9 8 8 7 7 8 7 8 9 11 13 15 19 22 22 21 20 20 20 20 20 19 18 18 17 13 9 6 4 4 2 3 6 8 8 8
24 25 25 26 27 26 26 26 27 29 30 30 30 29 29 28 28 28 28 27 25 25 25 24 25 25 24 23 22 20 19 19 19 19 18 17 16 15 15 15 14 15 15 15 15 14 14 14 13 12 11 9 8 8 8 8 8 10 13 14 16 20 22 23 23 22 21 21 21 21 20 21 20 19 16 11 6 5 4 3 3 5 6 7 8
22 21 22 25 26 27 27 27 27 28 30 31 31 30 30 29 29 29 29 28 28 28 27 26 26 26 25 25 24 22 21 21 21 21 21 20 18 18 17 17 16 16 16 16 16 17 17 16 15 14 13 11 9 8 9 9 9 11 14 15 17 20 23 24 23 23 22 22 23 22 22 21 19 17 15 11 8 7 7 6 6 6 5 5 5
21 21 23 24 24 25 27 27 27 28 29 30 31 30 30 30 29 30 30 30 30 30 30 29 28 27 27 27 26 25 24 23 23 22 22 21 20 20 20 19 18 18 18 17 18 19 19 18 17 16 15 13 11 9 10 10 9 11 14 16 18 20 22 24 24 24 24 23 24 23 22 20 18 15 13 11 9 9 9 8 8 7 6 4 2
22 23 24 22 22 23 25 27 27 28 29 30 30 30 29 29 29 30 30 30 30 31 31 31 30 29 28 29 28 28 27 26 25 24 23 23 22 22 22 21 20 20 20 19 19 20 20 20 19 18 17 15 14 12 12 12 10 10 13 16 19 20 22 24 25 26 26 26 25 25 23 20 18 17 14 13 12 11 11 9 9 10 9 7 4
25 25 24 24 24 23 24 25 26 27 28 29 30 30 30 29 29 29 30 30 31 31 32 32 32 31 30 30 30 30 29 28 27 26 26 26 24 23 23 23 23 22 22 22 21 21 22 22 20 19 19 18 18 16 14 14 13 11 12 15 19 21 22 23 25 27 28 27 27 26 23 22 22 20 17 16 15 13 12 11 9 10 10 10 9
25 25 25 26 25 25 25 25 25 26 27 28 29 30 30 30 29 29 29 30 31 31 31 32 32 32 32 32 32 32 31 30 29 29 28 29 28 25 24 24 25 25 25 24 23 21 21 24 23 21 21 20 20 20 18 16 15 13 12 14 18 21 22 24 25 27 28 29 28 27 26 26 24 22 19 18 17 15 14 12 11 11 11 11 11
25 26 26 26 26 26 26 26 25 25 26 27 28 29 30 30 30 30 30 30 30 30 31 31 32 33 33 33 33 33 33 32 31 31 30 31 31 28 26 26 26 27 27 26 24 22 20 23 25 24 24 23 22 23 21 19 17 15 14 15 18 21 23 24 26 26 28 29 30 29 28 27 24 22 22 20 19 17 15 13 12 13 13 13 13
24 26 27 27 27 28 28 27 27 26 26 27 27 28 29 30 31 31 31 32 32 31 31 31 31 32 32 33 34 35 35 35 34 33 32 32 32 31 29 28 28 29 28 27 26 25 23 22 25 26 27 27 26 25 24 21 19 18 18 18 19 21 23 25 27 28 28 29 29 29 28 26 25 24 23 22 21 19 17 15 14 14 15 15 15
22 25 27 28 29 29 29 29 29 28 28 29 28 29 29 31 32 33 34 34 34 33 32 32 32 32 32 32 33 35 35 35 36 35 34 33 33 33 32 32 31 31 31 30 29 29 27 24 24 26 29 30 29 28 27 25 23 21 21 20 20 21 24 27 28 29 29 29 29 28 28 27 27 27 25 24 23 21 19 16 15 15 16 16 16
23 25 27 29 29 29 30 29 29 29 30 31 30 30 30 31 32 33 33 34 34 34 34 33 33 33 32 32 32 33 33 34 35 35 34 34 35 35 34 34 34 34 34 34 31 30 29 27 26 26 29 31 32 32 31 29 27 25 24 23 23 24 26 28 30 31 31 31 31 31 31 31 30 29 27 26 24 23 20 18 17 17 17 16 16
25 25 26 27 28 30 30 29 29 30 31 31 31 31 31 31 32 32 32 33 33 34 34 33 33 33 33 33 33 33 33 34 35 35 36 36 36 36 35 36 37 35 36 36 34 32 31 32 31 29 30 32 34 35 36 34 30 28 27 26 26 27 28 29 31 32 32 33 33 33 33 33 32 31 30 28 26 24 22 20 19 18 17 16 15
26 26 26 26 28 30 30 30 30 31 31 31 31 31 31 31 32 33 33 34 34 34 34 33 33 34 34 33 34 34 34 34 34 35 36 36 36 35 36 38 39 38 37 39 39 36 35 38 38 32 30 33 35 38 39 37 33 31 28 27 28 28 28 31 34 34 34 34 34 34 34 34 34 33 32 30 28 26 24 22 20 19 17 16 15
27 28 28 27 28 29 29 29 30 30 30 31 31 31 32 33 34 35 35 36 36 35 35 36 36 36 36 35 35 35 35 35 34 34 35 36 36 36 37 39 41 41 40 40 42 41 37 39 42 36 31 35 38 39 40 39 38 35 31 29 26 24 26 31 35 36 36 36 36 36 35 35 35 35 34 32 30 28 25 23 21 20 18 17 16
27 27 27 27 27 26 27 28 29 29 29 30 30 31 32 34 36 37 37 38 38 38 38 38 38 38 37 37 36 36 36 35 35 35 36 36 36 38 40 41 42 42 41 41 43 45 40 40 45 41 35 39 40 38 40 42 42 41 37 32 25 23 28 32 32 34 37 38 38 37 37 37 37 36 35 33 32 30 27 25 23 21 19 18 17
24 24 24 25 25 24 25 27 28 29 29 30 30 31 33 34 36 38 39 39 40 40 39 38 38 38 37 37 37 36 36 36 36 36 37 38 38 37 39 40 42 42 43 43 42 44 44 44 46 43 42 45 41 37 41 44 45 44 43 41 35 30 31 30 29 30 35 39 40 39 39 39 38 37 36 35 34 32 30 27 24 22 21 19 18
19 20 22 23 24 24 24 25 27 28 29 30 31 32 33 34 36 37 38 39 40 39 38 37 37 38 38 38 38 37 37 37 38 38 38 39 40 40 40 40 41 42 44 46 45 45 46 45 46 45 46 48 43 39 43 46 47 45 43 45 45 41 36 32 31 29 29 35 40 42 42 42 41 39 38 38 36 34 32 29 26 24 22 21 19
16 18 20 21 22 23 23 23 25 27 28 30 31 33 34 35 36 37 38 38 39 38 37 37 38 38 39 39 39 38 38 38 39 39 39 40 40 41 42 41 42 43 44 47 49 51 50 47 48 47 46 48 46 43 43 46 49 46 42 44 46 44 41 39 36 32 28 30 34 39 42 43 43 42 41 40 38 36 34 31 28 25 23 21 20
15 16 18 19 20 22 22 23 25 26 27 29 30 32 33 34 35 36 37 37 37 37 36 37 37 38 38 38 39 39 39 39 39 40 40 40 41 41 43 43 43 44 46 50 50 50 49 47 47 47 48 52 50 42 41 45 49 48 44 44 44 43 42 43 41 37 33 30 30 33 37 41 45 45 44 43 41 38 35 32 29 27 24 23 21
12 14 16 18 20 21 22 23 24 25 26 27 28 29 30 31 32 33 34 33 34 34 35 35 36 36 37 37 38 38 39 39 39 40 40 41 41 41 42 43 43 44 46 49 48 48 50 50 47 47 52 53 46 39 42 47 49 48 47 46 45 44 43 44 45 43 42 38 36 36 35 38 43 45 44 44 43 40 37 34 32 30 27 25 22
9 11 13 15 16 18 19 21 22 23 25 26 26 27 27 28 28 28 29 28 29 30 30 31 32 32 33 33 34 35 36 38 38 39 40 40 41 41 41 42 42 42 44 47 48 48 49 50 48 48 52 51 45 45 48 49 49 49 51 49 48 46 43 42 43 44 46 46 45 43 39 36 38 39 38 40 41 41 39 37 35 33 29 26 23
Wind_Direction
158 158 154 154 148 138 131 126 119 117 116 105 96 87 68 50 40 38 41 48 60 76 81 76 75 78 86 92 98 101 98 98 101 102 104 107 107 105 104 103 104 109 117 123 132 133 128 117 106 103 99 97 93 95 98 98 94 87 82 82 83 84 88 100 109 109 107 103 98 97 102 101 97 95 99 105 106 104 104 105 105 101 96 99 100
156 160 159 157 148 137 136 130 121 118 110 100 94 86 66 50 41 41 44 53 65 78 82 79 77 78 86 90 95 99 100 102 104 104 104 109 112 111 109 110 114 118 121 122 134 139 134 120 111 109 103 101 97 97 100 100 96 90 87 86 85 84 87 96 107 112 112 107 103 105 104 101 102 103 103 108 113 113 114 113 110 107 102 103 103
156 160 160 156 147 139 138 132 125 124 115 103 96 84 65 51 42 44 50 62 73 81 82 79 78 78 86 91 96 99 100 104 103 102 109 116 115 113 118 125 127 123 125 123 122 125 124 119 116 114 109 107 103 103 104 103 99 95 93 90 89 87 88 92 99 105 109 110 109 111 106 101 102 104 103 104 111 113 110 108 105 101 100 101 101
160 159 160 155 148 142 140 136 133 133 125 114 101 84 64 52 45 47 55 67 76 84 85 81 80 78 85 92 97 98 99 102 100 100 109 116 116 120 129 143 142 124 121 122 118 117 117 117 117 116 115 114 111 109 107 104 99 96 94 93 92 91 91 93 97 101 105 107 107 107 102 98 97 96 95 97 101 102 101 100 96 92 91 91 91
160 158 160 156 151 145 142 143 143 139 126 116 103 83 62 51 47 49 61 73 79 86 87 84 83 81 85 92 96 98 98 97 98 99 101 105 116 129 136 146 147 131 122 121 117 116 116 117 117 117 118 117 114 111 107 104 99 95 94 94 96 96 96 96 99 102 104 104 103 101 97 95 94 93 92 92 93 93 94 94 90 87 86 85 84
159 155 157 156 154 148 146 148 145 137 127 119 100 81 62 51 48 51 66 77 83 87 88 87 85 83 85 91 95 97 100 99 100 106 109 112 117 122 125 132 135 131 126 120 115 115 118 116 115 116 118 118 117 114 111 107 103 98 93 95 99 102 100 99 100 100 102 103 104 102 100 97 93 91 87 85 86 88 87 85 82 81 83 83 81
158 155 156 157 156 152 151 149 145 138 132 124 104 86 67 56 53 58 73 79 82 87 88 88 86 84 85 91 96 95 100 101 107 121 130 129 123 113 111 121 126 126 123 117 115 117 119 118 117 119 120 121 120 117 116 113 107 101 98 100 105 108 105 101 100 99 101 100 101 102 103 102 96 91 88 86 85 85 85 85 84 81 82 83 81
155 156 157 159 160 157 156 153 148 142 138 130 115 96 74 64 60 68 80 81 80 85 88 90 89 87 86 90 95 96 100 103 112 129 137 132 126 119 113 113 117 121 121 117 119 121 121 122 122 124 126 125 123 121 121 118 113 109 106 110 114 114 110 107 105 103 102 100 98 97 97 99 100 101 102 101 93 90 91 91 90 88 88 88 88
153 155 157 161 163 161 157 156 154 148 143 136 124 103 83 73 71 78 86 85 80 82 87 91 92 91 90 90 95 98 103 105 112 124 131 129 125 118 109 105 110 120 123 122 123 124 125 127 128 129 130 129 128 126 125 123 117 112 106 113 122 120 117 113 111 108 104 102 99 95 93 95 101 107 110 109 103 101 103 101 99 98 95 95 95
156 155 158 163 164 163 159 158 159 156 152 142 130 111 93 85 85 89 92 90 83 81 84 88 91 93 93 92 95 99 104 106 110 119 125 127 123 115 109 109 115 123 126 127 128 128 130 131 132 131 131 131 130 129 128 125 114 104 100 109 120 122 119 115 113 110 106 103 100 95 93 94 96 99 105 110 109 106 105 102 99 98 97 99 98
163 159 161 164 167 166 161 161 161 162 160 149 134 120 107 100 100 99 101 94 84 81 81 84 86 88 91 92 94 97 102 103 104 112 118 123 126 120 117 123 126 126 128 132 131 132 133 132 133 133 133 133 131 131 127 123 114 103 105 114 119 119 118 116 114 110 106 104 101 98 96 94 92 93 95 99 104 105 104 102 98 96 99 104 101
167 165 165 167 170 168 162 163 163 163 161 152 140 131 122 114 111 109 110 99 82 80 82 83 83 83 86 87 90 95 97 97 96 101 108 116 126 127 128 135 132 128 132 135 134 135 135 133 136 136 135 136 132 131 124 119 112 106 115 124 125 122 119 118 114 111 109 105 103 102 101 98 95 94 94 92 95 100 103 104 102 100 101 105 106
168 168 169 170 170 168 163 164 165 165 163 155 149 143 136 127 121 119 118 106 85 83 88 88 88 85 84 85 87 92 93 91 92 99 104 108 117 125 130 131 130 132 136 137 137 137 136 135 137 139 138 138 136 132 127 120 109 111 123 129 129 126 122 117 113 113 112 110 108 106 104 102 102 101 100 98 96 95 97 100 100 100 102 105 107
170 170 171 171 172 171 166 166 169 167 164 159 156 153 146 136 127 124 123 113 93 89 96 96 97 92 90 90 90 94 94 92 92 99 103 106 109 114 120 124 130 135 138 137 136 136 134 134 137 140 141 140 139 136 134 127 115 115 127 131 129 127 123 119 116 117 116 115 113 110 108 107 109 108 109 109 99 93 94 96 98 98 100 100 99
174 173 172 173 175 175 173 172 175 172 168 164 163 161 154 142 129 130 131 122 105 98 102 105 105 99 97 97 98 101 100 99 98 103 104 108 113 115 120 126 133 137 139 137 135 135 133 135 137 138 137 139 140 138 134 126 119 118 130 134 130 129 126 123 122 122 121 120 117 115 113 112 114 113 116 115 98 95 98 97 99 99 96 92 89
180 179 177 178 179 180 179 177 181 181 176 172 172 167 159 147 135 138 140 131 120 108 108 112 111 105 102 102 104 106 105 105 106 112 113 114 119 122 127 131 135 138 140 139 138 137 135 135 136 136 135 137 142 140 133 125 122 123 134 140 137 135 132 130 128 128 126 124 122 119 116 118 120 122 126 120 100 100 103 102 101 97 91 87 83
181 183 183 182 182 184 185 182 184 186 183 180 177 173 165 157 147 147 148 140 129 117 112 113 115 109 103 103 104 108 108 110 112 119 122 122 123 127 132 134 137 139 139 139 138 137 135 136 136 136 136 140 147 147 138 129 128 130 139 147 147 143 139 136 134 131 128 126 124 120 120 123 124 131 134 130 118 108 105 103 98 92 86 82 78
181 186 188 188 186 188 190 187 189 189 188 185 182 180 173 169 163 156 158 149 138 129 116 107 109 108 103 101 100 104 110 114 116 122 126 127 129 132 134 135 138 139 139 139 137 136 135 137 137 138 140 146 153 155 151 140 136 137 145 153 155 151 147 144 138 134 130 129 128 123 122 125 130 135 130 131 126 112 106 105 98 93 88 84 81
187 188 191 194 191 192 194 192 194 194 193 191 189 186 183 183 182 177 176 161 150 145 132 113 104 102 101 100 99 102 108 114 117 121 126 128 132 136 135 137 140 138 139 139 137 137 138 141 142 143 145 150 161 167 170 164 154 148 152 161 163 159 155 150 142 137 135 132 129 126 128 131 129 126 126 132 126 113 113 110 104 99 91 85 83
194 193 194 197 196 197 197 196 197 197 197 196 195 193 191 191 193 197 196 182 171 167 163 149 128 113 105 104 105 108 111 117 123 126 128 130 134 137 137 139 141 141 141 141 139 140 142 144 144 145 146 153 168 177 184 184 173 163 161 167 172 169 163 157 148 142 139 135 132 131 135 137 132 125 123 125 118 119 121 111 102 97 90 88 87
199 198 197 198 199 200 201 200 200 200 200 200 200 199 197 198 199 203 202 198 191 186 185 180 169 153 134 121 117 123 125 127 132 137 139 141 144 144 144 145 145 146 146 145 145 146 145 141 136 135 135 143 159 175 188 187 181 172 166 163 174 179 174 166 156 148 143 141 142 143 144 144 147 143 128 114 111 120 122 106 94 90 86 86 84
201 200 199 201 202 201 203 204 205 204 203 204 205 204 203 203 205 207 207 205 202 201 197 193 192 184 172 157 146 148 144 143 141 145 150 152 155 153 152 153 152 153 155 154 154 157 154 134 113 96 86 84 88 123 190 190 188 183 179 177 179 186 185 176 165 157 150 146 148 156 158 154 156 147 122 113 110 116 113 94 85 82 80 79 76
205 204 202 203 204 204 204 205 208 208 207 207 209 210 209 208 210 213 213 212 212 212 208 204 203 199 196 194 196 185 168 165 161 159 163 164 165 164 163 163 165 166 168 169 168 171 172 154 96 50 40 38 34 24 347 230 212 206 206 203 190 189 189 183 175 167 158 151 153 167 171 163 155 127 120 119 118 125 110 81 80 80 80 75 76
211 211 209 206 207 207 207 207 209 211 211 210 212 215 215 213 213 216 217 218 218 218 217 214 211 211 209 210 215 207 196 192 182 176 175 178 179 176 175 175 177 180 184 187 185 188 194 203 203 255 14 18 14 9 348 305 257 241 233 210 188 185 185 183 181 174 166 158 158 172 174 157 138 118 117 124 131 140 108 81 82 79 76 65 80
218 216 214 213 211 210 210 210 211 212 213 214 216 217 218 218 216 217 219 221 222 223 223 221 218 219 220 221 222 218 220 212 197 192 187 188 193 192 190 188 190 192 196 201 203 204 204 205 206 212 234 281 312 315 282 266 261 249 229 200 183 182 181 180 179 170 162 151 146 155 152 139 126 119 114 119 134 137 94 77 73 82 85 77 82
222 221 219 219 217 215 214 214 214 214 215 217 219 220 221 222 220 219 221 223 224 226 227 226 225 225 226 228 227 225 228 216 203 201 197 196 200 205 206 205 206 208 209 211 214 213 207 204 204 209 226 242 248 247 234 224 225 222 210 199 186 182 182 179 173 163 154 146 143 146 146 142 135 127 117 115 118 79 48 32 65 85 87 88 93
226 226 225 224 223 220 218 218 218 218 218 218 220 222 223 225 224 223 225 227 228 228 230 230 230 230 230 232 231 231 229 220 213 211 208 206 207 212 216 217 219 220 221 222 222 219 214 211 210 217 229 245 258 266 253 228 218 207 202 201 191 185 183 175 165 158 153 150 150 152 154 154 148 138 129 122 109 11 358 60 93 88 65 78 90
229 229 229 229 228 226 222 221 222 223 223 221 221 223 225 226 227 226 227 229 232 231 232 234 234 233 232 232 233 232 229 226 226 224 220 217 216 219 221 222 224 225 228 229 227 223 221 220 221 225 232 245 266 284 282 258 233 209 204 206 195 185 182 174 164 159 158 157 157 158 159 154 142 134 127 118 113 77 36 89 111 96 85 90 86
230 231 231 232 232 230 227 225 225 226 225 224 225 226 227 227 228 229 228 229 233 232 232 235 237 237 234 232 232 232 231 231 230 230 229 226 224 224 225 226 226 227 230 232 231 228 226 228 228 231 238 248 266 283 287 271 246 219 206 209 197 185 183 177 170 168 166 165 164 163 163 157 144 142 144 139 128 102 73 105 116 89 95 104 100
231 233 234 234 234 232 231 230 230 229 228 227 228 229 230 230 231 232 231 231 234 232 230 233 237 239 238 235 234 234 234 236 236 235 233 233 232 230 230 231 231 231 233 234 232 231 231 234 235 236 242 249 264 277 282 273 252 229 208 207 201 189 187 185 178 177 176 170 170 168 166 161 154 158 161 154 147 137 126 134 106 95 107 109 107
232 233 233 235 235 234 233 233 232 232 231 231 232 233 234 234 235 235 235 235 236 234 230 231 235 239 241 240 238 237 237 237 237 239 237 235 237 235 233 234 236 236 236 235 233 231 234 236 236 237 242 248 261 271 274 268 254 237 215 207 206 199 195 195 187 184 183 178 177 175 169 165 163 168 172 172 171 155 142 126 50 91 110 111 110
232 233 233 233 234 234 234 234 233 233 232 234 235 236 237 238 238 238 238 238 238 237 234 232 233 237 242 243 242 241 239 238 238 240 240 237 239 239 236 237 240 240 240 238 233 230 233 236 235 234 236 242 254 265 266 260 252 242 226 213 210 208 206 206 198 189 189 186 184 180 176 176 177 181 186 193 183 152 151 146 118 115 120 121 119
237 236 235 234 234 234 234 234 234 233 234 235 236 238 239 240 240 240 240 241 239 240 239 236 235 235 240 244 245 243 241 241 240 240 240 239 240 241 240 240 240 240 242 241 237 233 234 237 238 237 239 243 248 256 259 255 248 241 233 223 216 214 213 213 206 196 194 193 191 186 185 188 190 194 199 204 191 169 169 167 165 155 144 151 139
242 239 237 236 236 234 234 234 234 234 235 236 237 238 239 240 241 241 242 243 242 243 243 241 238 236 238 242 245 246 244 243 242 240 239 239 239 240 242 242 241 240 240 241 239 237 236 239 241 241 243 247 249 251 253 253 252 247 237 230 224 220 218 216 209 202 199 199 198 193 191 196 199 203 213 220 219 205 187 173 169 162 158 183 170
241 239 239 239 238 236 235 235 234 235 236 237 238 239 239 240 242 243 244 245 245 245 246 244 241 239 238 239 242 245 246 246 246 245 244 243 240 238 240 243 245 244 242 241 241 240 238 240 243 244 245 248 251 250 248 248 251 252 243 236 231 227 223 218 213 210 206 203 205 203 199 204 208 213 225 234 239 232 215 200 183 173 173 177 170
241 241 242 241 239 238 237 237 237 237 238 239 240 240 239 240 241 243 245 246 247 247 248 248 246 244 241 239 240 243 245 246 246 247 249 250 247 242 242 244 247 247 246 244 243 242 239 239 241 245 246 248 253 251 246 245 245 247 245 239 235 233 230 223 217 216 215 210 209 212 212 213 216 222 235 244 246 240 233 231 217 197 190 182 174
243 244 244 243 243 241 238 239 239 240 241 241 241 240 240 240 241 242 244 246 246 247 248 248 249 248 245 242 241 242 244 244 245 246 246 249 252 250 245 245 248 250 250 250 248 247 243 238 239 242 244 245 252 253 247 244 243 239 239 238 236 235 235 231 224 220 223 221 215 215 217 220 223 232 243 248 247 242 237 237 232 224 217 200 183
244 244 244 245 247 247 244 242 242 242 243 243 242 241 241 241 242 242 243 245 246 248 248 247 247 248 247 246 243 242 244 244 245 246 245 246 250 252 249 246 248 251 251 252 252 253 250 242 237 239 242 242 246 250 249 246 245 241 236 233 233 233 234 235 233 228 227 228 225 222 223 227 232 240 246 247 245 244 239 236 234 232 231 224 209
246 243 243 244 245 247 247 246 244 244 244 244 243 242 242 241 241 241 242 242 243 245 247 248 247 247 247 247 246 245 244 245 245 244 243 243 246 249 251 248 248 250 250 250 250 251 252 246 239 238 240 240 242 246 248 246 243 243 238 232 229 229 231 231 234 235 233 232 233 232 232 234 238 241 243 244 244 243 241 237 235 233 233 235 234
250 246 243 242 243 243 245 245 244 243 243 243 241 239 239 239 238 238 240 241 242 243 245 248 249 249 249 248 248 248 246 246 246 245 242 240 242 244 247 247 247 248 248 248 249 249 249 250 245 240 239 239 239 240 244 245 241 239 237 232 230 229 229 229 231 233 233 234 235 235 235 236 238 240 241 242 243 242 241 237 236 236 235 236 238
252 248 244 242 242 242 242 243 243 242 241 241 241 240 239 238 239 241 243 244 244 244 246 247 249 251 252 251 250 249 248 245 244 245 244 241 241 242 244 245 244 245 246 248 252 251 250 253 250 244 241 239 239 238 239 240 237 235 234 229 229 230 229 229 229 231 231 233 234 234 235 236 236 238 239 240 241 242 241 237 236 236 235 236 236
252 250 249 246 244 243 243 243 243 243 242 242 242 242 242 243 246 249 251 250 249 250 251 252 253 254 254 254 253 251 250 246 242 242 243 243 241 240 242 242 242 245 245 248 252 252 251 251 244 240 241 240 241 241 237 236 234 235 236 230 225 226 228 230 230 230 230 230 231 232 234 235 235 236 237 239 240 240 240 237 237 237 237 238 237
253 252 252 250 248 246 245 244 243 243 244 244 244 244 246 247 248 251 252 252 253 253 254 255 255 255 256 256 255 254 253 251 247 243 242 245 244 241 239 238 242 245 245 246 247 247 249 248 239 236 244 242 239 240 239 238 237 236 232 227 225 224 225 230 231 230 229 228 229 231 233 234 235 235 236 238 239 239 239 238 238 239 239 240 238
252 250 249 249 249 249 248 246 243 243 243 243 245 246 247 247 247 249 250 251 252 252 252 252 252 253 255 256 256 256 255 254 252 248 245 244 244 244 242 240 241 244 245 245 245 244 245 246 239 234 245 245 237 237 238 238 239 237 229 222 223 223 225 233 234 232 229 227 228 229 232 234 235 236 236 237 238 238 238 238 238 239 239 239 237
254 252 251 251 253 253 253 250 246 244 242 242 244 246 247 247 246 246 246 247 248 248 248 249 250 250 252 254 255 255 256 255 253 252 251 249 245 243 243 244 246 248 246 244 245 244 243 249 244 236 248 250 239 239 241 237 238 240 237 229 222 222 231 238 237 234 233 230 229 229 231 234 236 237 237 237 238 238 238 238 237 238 238 237 234
256 255 255 255 256 257 256 254 251 246 244 243 244 246 247 248 247 246 246 246 247 247 249 251 252 253 254 255 255 256 256 256 255 252 252 253 252 249 245 245 248 250 251 248 246 243 243 249 243 240 253 251 238 240 245 241 237 237 238 237 234 237 244 243 235 233 234 232 232 232 232 234 236 237 237 237 238 238 238 237 237 237 237 236 233
257 256 255 255 256 257 257 256 255 252 250 249 248 249 250 251 251 251 251 251 251 253 255 256 256 257 258 258 257 258 257 256 257 255 253 252 252 253 251 249 248 248 249 247 244 244 248 249 241 244 256 249 238 245 251 245 237 235 238 239 238 242 249 248 241 236 233 232 233 233 233 234 235 236 236 237 238 238 238 237 236 235 235 235 233
256 255 254 255 256 257 258 258 257 255 254 254 254 253 254 255 255 255 255 255 256 259 259 259 259 259 259 259 260 259 258 258 258 257 257 254 252 252 252 251 250 248 248 245 245 248 251 249 243 247 254 246 242 249 254 250 242 240 245 244 240 241 247 249 246 243 240 239 238 235 235 236 235 236 236 237 238 238 238 238 237 236 235 235 233
253 253 253 255 256 257 258 257 255 254 254 254 255 255 256 257 257 257 257 258 260 262 262 261 261 260 260 260 259 259 259 258 258 257 257 256 255 253 252 250 247 246 247 248 250 251 249 246 243 248 251 244 241 248 254 255 248 246 251 250 242 241 244 246 244 243 244 246 245 241 241 238 235 235 235 235 237 237 236 237 239 238 235 234 232
252 252 252 252 252 253 254 253 253 253 253 253 254 255 255 255 256 256 258 260 261 262 263 262 261 260 260 260 259 259 259 258 258 258 257 257 256 255 254 253 249 246 245 246 250 249 246 244 242 249 254 245 241 252 258 255 250 248 253 253 245 241 242 242 243 244 244 245 247 247 248 243 238 237 235 235 237 237 236 236 237 237 234 232 229
257 257 257 255 254 254 253 253 253 253 253 253 253 253 253 254 255 256 258 260 262 262 262 262 262 261 261 262 262 262 262 261 261 260 259 258 257 257 256 255 253 249 245 245 248 247 245 244 244 251 253 245 247 259 258 251 248 249 251 249 246 246 248 249 252 252 249 247 247 246 247 245 242 242 242 242 241 238 236 236 237 237 234 231 228